Time,TemperatureF,DewpointF,PressureIn,WindDirection,WindDirectionDegrees,WindSpeedMPH,WindSpeedGustMPH,Humidity,HourlyPrecipIn,Conditions,Clouds,dailyrainin,SoftwareType,DateUTC
2013-02-01 00:00:00,28.8,22.8,29.96,South,180,1.0,1.0,78,0.00,,---,0.00,VWS V14.01,2013-02-01 05:00:00,
2013-02-01 00:02:00,28.8,22.8,29.96,South,180,0.0,1.0,78,0.00,,---,0.00,VWS V14.01,2013-02-01 05:02:00,
2013-02-01 00:07:00,28.8,23.1,29.98,South,180,0.0,1.0,79,0.00,,---,0.00,VWS V14.01,2013-02-01 05:07:00,
2013-02-01 00:12:00,29.4,22.5,29.97,WSW,238,1.0,2.0,75,0.00,,---,0.00,VWS V14.01,2013-02-01 05:12:00,
2013-02-01 00:17:00,30.2,22.6,29.97,WSW,238,0.0,2.0,73,0.00,,---,0.00,VWS V14.01,2013-02-01 05:17:00,
2013-02-01 00:22:00,30.6,22.7,29.97,SW,236,0.0,2.0,72,0.00,,---,0.00,VWS V14.01,2013-02-01 05:22:00,
2013-02-01 00:27:00,30.7,22.4,29.97,SW,217,0.0,0.0,71,0.00,,---,0.00,VWS V14.01,2013-02-01 05:27:00,
2013-02-01 00:30:00,30.6,22.7,29.97,SW,217,0.0,2.0,72,0.00,,---,0.00,VWS V14.01,2013-02-01 05:30:00,
2013-02-01 00:32:00,30.9,22.3,29.97,SW,229,0.0,1.0,70,0.00,,---,0.00,VWS V14.01,2013-02-01 05:32:00,
2013-02-01 00:37:00,31.2,22.2,29.97,SW,215,0.0,2.0,69,0.00,,---,0.00,VWS V14.01,2013-02-01 05:37:00,
2013-02-01 00:42:00,31.5,22.5,29.97,SW,227,0.0,2.0,69,0.00,,---,0.00,VWS V14.01,2013-02-01 05:42:00,
2013-02-01 00:47:00,31.6,22.3,29.96,SW,217,0.0,2.0,68,0.00,,---,0.00,VWS V14.01,2013-02-01 05:47:00,
2013-02-01 00:52:00,31.6,22.6,29.96,SW,217,0.0,2.0,69,0.00,,---,0.00,VWS V14.01,2013-02-01 05:52:00,
2013-02-01 00:57:00,31.3,22.3,29.96,WSW,246,0.0,1.0,69,0.00,,---,0.00,VWS V14.01,2013-02-01 05:57:00,
2013-02-01 01:00:00,31.5,22.5,29.96,SW,217,1.0,2.0,69,0.00,,---,0.00,VWS V14.01,2013-02-01 06:00:00,
2013-02-01 01:02:00,31.0,22.4,29.95,SSE,163,1.0,1.0,70,0.00,,---,0.00,VWS V14.01,2013-02-01 06:02:00,
2013-02-01 01:07:00,30.9,22.3,29.95,SSW,202,0.0,1.0,70,0.00,,---,0.00,VWS V14.01,2013-02-01 06:07:00,
2013-02-01 01:12:00,31.0,22.0,29.96,SW,229,1.0,1.0,69,0.00,,---,0.00,VWS V14.01,2013-02-01 06:12:00,
2013-02-01 01:17:00,31.5,22.2,29.96,WSW,237,0.0,1.0,68,0.00,,---,0.00,VWS V14.01,2013-02-01 06:17:00,
2013-02-01 01:22:00,32.0,22.3,29.96,SW,233,0.0,1.0,67,0.00,,---,0.00,VWS V14.01,2013-02-01 06:22:00,
2013-02-01 01:27:00,32.3,22.2,29.97,South,171,2.0,2.0,66,0.00,,---,0.00,VWS V14.01,2013-02-01 06:27:00,
2013-02-01 01:30:00,32.2,22.1,29.96,SW,214,1.0,4.0,66,0.00,,---,0.00,VWS V14.01,2013-02-01 06:30:00,
2013-02-01 01:33:00,32.6,22.1,29.96,SSE,157,0.0,3.0,65,0.00,,---,0.00,VWS V14.01,2013-02-01 06:33:00,
2013-02-01 01:37:00,32.9,22.4,29.96,SSE,162,0.0,3.0,65,0.00,,---,0.00,VWS V14.01,2013-02-01 06:37:00,
2013-02-01 01:43:00,33.0,22.5,29.95,SW,232,0.0,3.0,65,0.00,,---,0.00,VWS V14.01,2013-02-01 06:43:00,
2013-02-01 01:48:00,33.1,22.6,29.95,South,173,1.0,3.0,65,0.00,,---,0.00,VWS V14.01,2013-02-01 06:48:00,
2013-02-01 01:53:00,33.3,22.8,29.95,SSW,200,1.0,3.0,65,0.00,,---,0.00,VWS V14.01,2013-02-01 06:53:00,
2013-02-01 01:58:00,33.5,23.0,29.95,SW,229,2.0,2.0,65,0.00,,---,0.00,VWS V14.01,2013-02-01 06:58:00,
2013-02-01 02:00:00,33.4,22.9,29.95,SSW,205,1.0,4.0,65,0.00,,---,0.00,VWS V14.01,2013-02-01 07:00:00,
2013-02-01 02:03:00,33.7,22.8,29.94,WSW,237,0.0,4.0,64,0.00,,---,0.00,VWS V14.01,2013-02-01 07:03:00,
2013-02-01 02:08:00,33.8,22.9,29.94,SSE,166,1.0,4.0,64,0.00,,---,0.00,VWS V14.01,2013-02-01 07:08:00,
2013-02-01 02:13:00,33.9,23.0,29.94,South,186,1.0,4.0,64,0.00,,---,0.00,VWS V14.01,2013-02-01 07:13:00,
2013-02-01 02:18:00,34.0,23.1,29.93,SW,229,4.0,4.0,64,0.00,,---,0.00,VWS V14.01,2013-02-01 07:18:00,
2013-02-01 02:23:00,34.0,23.5,29.93,SSE,154,0.0,4.0,65,0.00,,---,0.00,VWS V14.01,2013-02-01 07:23:00,
2013-02-01 02:28:00,34.1,23.6,29.93,SW,226,1.0,7.0,65,0.00,,---,0.00,VWS V14.01,2013-02-01 07:28:00,
2013-02-01 02:30:00,34.0,23.5,29.93,SW,234,7.0,7.0,65,0.00,,---,0.00,VWS V14.01,2013-02-01 07:30:00,
2013-02-01 02:33:00,34.3,23.8,29.92,SSW,209,2.0,7.0,65,0.00,,---,0.00,VWS V14.01,2013-02-01 07:33:00,
2013-02-01 02:38:00,34.5,24.0,29.92,WSW,239,2.0,7.0,65,0.00,,---,0.00,VWS V14.01,2013-02-01 07:38:00,
2013-02-01 02:43:00,34.8,24.2,29.91,SW,232,2.0,9.0,65,0.00,,---,0.00,VWS V14.01,2013-02-01 07:43:00,
2013-02-01 02:48:00,35.1,24.5,29.91,West,263,4.0,9.0,65,0.00,,---,0.00,VWS V14.01,2013-02-01 07:48:00,
2013-02-01 02:53:00,35.1,24.5,29.91,SW,218,6.0,9.0,65,0.00,,---,0.00,VWS V14.01,2013-02-01 07:53:00,
2013-02-01 02:58:00,35.3,24.7,29.91,WSW,248,7.0,8.0,65,0.00,,---,0.00,VWS V14.01,2013-02-01 07:58:00,
2013-02-01 03:00:00,35.2,24.6,29.91,South,183,6.0,9.0,65,0.00,,---,0.00,VWS V14.01,2013-02-01 08:00:00,
2013-02-01 03:03:00,35.5,24.9,29.91,WSW,242,6.0,8.0,65,0.00,,---,0.00,VWS V14.01,2013-02-01 08:03:00,
2013-02-01 03:08:00,35.6,25.0,29.90,SSW,192,4.0,8.0,65,0.00,,---,0.00,VWS V14.01,2013-02-01 08:08:00,
2013-02-01 03:13:00,35.5,24.9,29.90,WSW,239,2.0,8.0,65,0.00,,---,0.00,VWS V14.01,2013-02-01 08:13:00,
2013-02-01 03:18:00,35.6,25.0,29.90,SSW,192,4.0,8.0,65,0.00,,---,0.00,VWS V14.01,2013-02-01 08:18:00,
2013-02-01 03:23:00,35.6,25.0,29.90,SW,226,2.0,8.0,65,0.00,,---,0.00,VWS V14.01,2013-02-01 08:23:00,
2013-02-01 03:28:00,35.6,25.4,29.90,SSW,203,1.0,5.0,66,0.00,,---,0.00,VWS V14.01,2013-02-01 08:28:00,
2013-02-01 03:30:00,35.6,25.4,29.90,South,188,1.0,8.0,66,0.00,,---,0.00,VWS V14.01,2013-02-01 08:30:00,
2013-02-01 03:33:00,35.7,25.5,29.90,SSW,202,6.0,8.0,66,0.00,,---,0.00,VWS V14.01,2013-02-01 08:33:00,
2013-02-01 03:38:00,35.8,25.6,29.90,SW,222,8.0,8.0,66,0.00,,---,0.00,VWS V14.01,2013-02-01 08:38:00,
2013-02-01 03:43:00,35.9,25.7,29.90,West,260,6.0,8.0,66,0.00,,---,0.00,VWS V14.01,2013-02-01 08:43:00,
2013-02-01 03:48:00,36.1,25.5,29.89,SSE,165,6.0,8.0,65,0.00,,---,0.00,VWS V14.01,2013-02-01 08:48:00,
2013-02-01 03:53:00,36.2,26.0,29.88,WSW,244,6.0,8.0,66,0.00,,---,0.00,VWS V14.01,2013-02-01 08:53:00,
2013-02-01 04:00:00,36.2,26.0,29.88,SW,233,6.0,8.0,66,0.00,,---,0.00,VWS V14.01,2013-02-01 09:00:00,
2013-02-01 04:03:00,36.4,26.1,29.87,NW,312,2.0,10.0,66,0.00,,---,0.00,VWS V14.01,2013-02-01 09:03:00,
2013-02-01 04:08:00,36.5,25.9,29.86,SW,236,4.0,10.0,65,0.00,,---,0.00,VWS V14.01,2013-02-01 09:08:00,
2013-02-01 04:13:00,36.5,25.9,29.86,WSW,242,1.0,10.0,65,0.00,,---,0.00,VWS V14.01,2013-02-01 09:13:00,
2013-02-01 04:18:00,36.7,26.1,29.86,SW,215,5.0,13.0,65,0.00,,---,0.00,VWS V14.01,2013-02-01 09:18:00,
2013-02-01 04:23:00,36.7,26.1,29.86,SSW,205,4.0,13.0,65,0.00,,---,0.00,VWS V14.01,2013-02-01 09:23:00,
2013-02-01 04:28:00,36.7,26.1,29.86,SW,232,1.0,9.0,65,0.00,,---,0.00,VWS V14.01,2013-02-01 09:28:00,
2013-02-01 04:33:00,36.7,26.1,29.86,South,189,3.0,13.0,65,0.00,,---,0.00,VWS V14.01,2013-02-01 09:33:00,
2013-02-01 04:38:00,36.7,26.4,29.85,SSW,202,6.0,13.0,66,0.00,,---,0.00,VWS V14.01,2013-02-01 09:38:00,
2013-02-01 04:43:00,36.7,26.4,29.86,SSW,209,4.0,13.0,66,0.00,,---,0.00,VWS V14.01,2013-02-01 09:43:00,
2013-02-01 04:48:00,36.6,26.3,29.85,WSW,237,10.0,13.0,66,0.00,,---,0.00,VWS V14.01,2013-02-01 09:48:00,
2013-02-01 04:53:00,36.9,26.6,29.85,ESE,120,4.0,13.0,66,0.00,,---,0.00,VWS V14.01,2013-02-01 09:53:00,
2013-02-01 04:58:00,36.9,26.6,29.85,SW,219,6.0,6.0,66,0.00,,---,0.00,VWS V14.01,2013-02-01 09:58:00,
2013-02-01 05:03:00,37.0,26.7,29.86,SW,219,4.0,7.0,66,0.00,,---,0.00,VWS V14.01,2013-02-01 10:03:00,
2013-02-01 05:08:00,37.2,26.9,29.86,WSW,254,4.0,8.0,66,0.00,,---,0.00,VWS V14.01,2013-02-01 10:08:00,
2013-02-01 05:13:00,37.5,26.8,29.86,WNW,294,6.0,9.0,65,0.00,,---,0.00,VWS V14.01,2013-02-01 10:13:00,
2013-02-01 05:18:00,37.8,27.1,29.87,WSW,250,1.0,9.0,65,0.00,,---,0.00,VWS V14.01,2013-02-01 10:18:00,
2013-02-01 05:23:00,37.9,27.2,29.86,WSW,249,4.0,9.0,65,0.00,,---,0.00,VWS V14.01,2013-02-01 10:23:00,
2013-02-01 05:29:00,38.2,27.1,29.87,WSW,253,1.0,7.0,64,0.00,,---,0.00,VWS V14.01,2013-02-01 10:29:00,
2013-02-01 05:34:00,38.5,27.4,29.87,NNW,333,0.0,14.0,64,0.00,,---,0.00,VWS V14.01,2013-02-01 10:34:00,
2013-02-01 05:39:00,38.7,27.2,29.88,South,189,4.0,14.0,63,0.00,,---,0.00,VWS V14.01,2013-02-01 10:39:00,
2013-02-01 05:44:00,38.7,27.6,29.88,SSW,202,1.0,14.0,64,0.00,,---,0.00,VWS V14.01,2013-02-01 10:44:00,
2013-02-01 05:49:00,38.7,27.6,29.88,SSW,208,1.0,14.0,64,0.00,,---,0.00,VWS V14.01,2013-02-01 10:49:00,
2013-02-01 05:54:00,38.7,27.6,29.88,West,281,5.0,14.0,64,0.00,,---,0.00,VWS V14.01,2013-02-01 10:54:00,
2013-02-01 05:59:00,38.8,27.3,29.89,North,11,2.0,3.0,63,0.00,,---,0.00,VWS V14.01,2013-02-01 10:59:00,
2013-02-01 06:04:00,38.7,27.6,29.90,NW,308,10.0,10.0,64,0.00,,---,0.00,VWS V14.01,2013-02-01 11:04:00,
2013-02-01 06:09:00,38.8,27.7,29.90,WSW,245,0.0,10.0,64,0.00,,---,0.00,VWS V14.01,2013-02-01 11:09:00,
2013-02-01 06:14:00,38.8,27.3,29.90,NNE,19,4.0,10.0,63,0.00,,---,0.00,VWS V14.01,2013-02-01 11:14:00,
2013-02-01 06:19:00,38.9,27.8,29.91,East,88,0.0,10.0,64,0.00,,---,0.00,VWS V14.01,2013-02-01 11:19:00,
2013-02-01 06:24:00,39.0,27.9,29.91,NW,310,5.0,10.0,64,0.00,,---,0.00,VWS V14.01,2013-02-01 11:24:00,
2013-02-01 06:29:00,39.1,27.6,29.91,WSW,251,2.0,6.0,63,0.00,,---,0.00,VWS V14.01,2013-02-01 11:29:00,
2013-02-01 06:34:00,39.3,27.8,29.91,West,261,2.0,6.0,63,0.00,,---,0.00,VWS V14.01,2013-02-01 11:34:00,
2013-02-01 06:39:00,39.3,27.8,29.92,WNW,296,2.0,6.0,63,0.00,,---,0.00,VWS V14.01,2013-02-01 11:39:00,
2013-02-01 06:44:00,39.5,28.0,29.92,WNW,292,1.0,10.0,63,0.00,,---,0.00,VWS V14.01,2013-02-01 11:44:00,
2013-02-01 06:49:00,39.8,28.2,29.92,WSW,237,4.0,10.0,63,0.00,,---,0.00,VWS V14.01,2013-02-01 11:49:00,
2013-02-01 06:54:00,40.0,28.0,29.93,ENE,63,0.0,10.0,62,0.00,,---,0.00,VWS V14.01,2013-02-01 11:54:00,
2013-02-01 06:59:00,40.2,28.2,29.93,NW,323,2.0,7.0,62,0.00,,---,0.00,VWS V14.01,2013-02-01 11:59:00,
2013-02-01 07:04:00,40.5,28.5,29.94,NW,322,5.0,7.0,62,0.00,,---,0.00,VWS V14.01,2013-02-01 12:04:00,
2013-02-01 07:09:00,40.7,28.3,29.95,NNE,13,2.0,8.0,61,0.00,,---,0.00,VWS V14.01,2013-02-01 12:09:00,
2013-02-01 07:14:00,40.9,28.5,29.97,NW,309,15.0,16.0,61,0.00,,---,0.00,VWS V14.01,2013-02-01 12:14:00,
2013-02-01 07:19:00,39.8,29.0,29.98,NE,40,9.0,16.0,65,0.00,,---,0.00,VWS V14.01,2013-02-01 12:19:00,
2013-02-01 07:24:00,38.7,29.1,29.99,NE,55,7.0,21.0,68,0.00,,---,0.00,VWS V14.01,2013-02-01 12:24:00,
2013-02-01 07:29:00,37.8,28.2,30.00,NW,317,8.0,13.0,68,0.00,,---,0.00,VWS V14.01,2013-02-01 12:29:00,
2013-02-01 07:34:00,37.4,27.8,30.01,NW,317,12.0,13.0,68,0.00,,---,0.00,VWS V14.01,2013-02-01 12:34:00,
2013-02-01 07:39:00,37.1,27.2,30.02,NE,49,13.0,23.0,67,0.00,,---,0.00,VWS V14.01,2013-02-01 12:39:00,
2013-02-01 07:44:00,36.8,26.9,30.02,NNW,329,5.0,23.0,67,0.00,,---,0.00,VWS V14.01,2013-02-01 12:44:00,
2013-02-01 07:49:00,36.7,26.4,30.02,NE,55,7.0,23.0,66,0.00,,---,0.00,VWS V14.01,2013-02-01 12:49:00,
2013-02-01 07:54:00,36.5,26.2,30.03,NE,36,5.0,23.0,66,0.00,,---,0.00,VWS V14.01,2013-02-01 12:54:00,
2013-02-01 07:59:00,36.5,25.9,30.04,NNE,21,5.0,14.0,65,0.00,,---,0.00,VWS V14.01,2013-02-01 12:59:00,
2013-02-01 08:04:00,36.5,23.1,30.04,NW,310,7.0,20.0,58,0.00,,---,0.00,VWS V14.01,2013-02-01 13:04:00,
2013-02-01 08:09:00,36.3,19.9,30.05,NNE,12,10.0,20.0,51,0.00,,---,0.00,VWS V14.01,2013-02-01 13:09:00,
2013-02-01 08:14:00,36.1,19.7,30.06,NNW,340,4.0,20.0,51,0.00,,---,0.00,VWS V14.01,2013-02-01 13:14:00,
2013-02-01 08:19:00,35.7,17.5,30.06,NNE,17,7.0,20.0,47,0.00,,---,0.00,VWS V14.01,2013-02-01 13:19:00,
2013-02-01 08:24:00,35.1,15.4,30.07,North,350,11.0,20.0,44,0.00,,---,0.00,VWS V14.01,2013-02-01 13:24:00,
2013-02-01 08:29:00,34.8,14.1,30.07,NNE,22,9.0,15.0,42,0.00,,---,0.00,VWS V14.01,2013-02-01 13:29:00,
2013-02-01 08:34:00,34.6,12.8,30.08,NE,38,9.0,15.0,40,0.00,,---,0.00,VWS V14.01,2013-02-01 13:34:00,
2013-02-01 08:39:00,34.5,12.1,30.09,NW,323,11.0,15.0,39,0.00,,---,0.00,VWS V14.01,2013-02-01 13:39:00,
2013-02-01 08:44:00,34.5,12.7,30.09,WNW,302,6.0,15.0,40,0.00,,---,0.00,VWS V14.01,2013-02-01 13:44:00,
2013-02-01 08:49:00,34.5,12.1,30.10,NE,43,16.0,16.0,39,0.00,,---,0.00,VWS V14.01,2013-02-01 13:49:00,
2013-02-01 08:55:00,34.4,10.2,30.10,NNW,348,13.0,16.0,36,0.00,,---,0.00,VWS V14.01,2013-02-01 13:55:00,
2013-02-01 09:00:00,34.3,11.4,30.11,NNW,332,2.0,10.0,38,0.00,,---,0.00,VWS V14.01,2013-02-01 14:00:00,
2013-02-01 09:05:00,34.3,10.1,30.12,North,351,8.0,14.0,36,0.00,,---,0.00,VWS V14.01,2013-02-01 14:05:00,
2013-02-01 09:10:00,33.9,7.8,30.12,East,83,6.0,15.0,33,0.00,,---,0.00,VWS V14.01,2013-02-01 14:10:00,
2013-02-01 09:15:00,33.8,8.4,30.12,NNE,31,20.0,20.0,34,0.00,,---,0.00,VWS V14.01,2013-02-01 14:15:00,
2013-02-01 09:20:00,33.6,8.2,30.12,NNW,333,9.0,20.0,34,0.00,,---,0.00,VWS V14.01,2013-02-01 14:20:00,
2013-02-01 09:25:00,33.3,8.6,30.12,NNW,329,5.0,22.0,35,0.00,,---,0.00,VWS V14.01,2013-02-01 14:25:00,
2013-02-01 09:30:00,33.1,7.8,30.13,NNW,332,4.0,11.0,34,0.00,,---,0.00,VWS V14.01,2013-02-01 14:30:00,
2013-02-01 09:35:00,33.3,8.0,30.13,NW,314,3.0,12.0,34,0.00,,---,0.00,VWS V14.01,2013-02-01 14:35:00,
2013-02-01 09:40:00,33.2,9.1,30.14,NNW,329,9.0,20.0,36,0.00,,---,0.00,VWS V14.01,2013-02-01 14:40:00,
2013-02-01 09:45:00,33.3,9.9,30.14,NNW,348,13.0,20.0,37,0.00,,---,0.00,VWS V14.01,2013-02-01 14:45:00,
2013-02-01 09:50:00,33.1,9.1,30.14,ENE,57,13.0,20.0,36,0.00,,---,0.00,VWS V14.01,2013-02-01 14:50:00,
2013-02-01 09:55:00,33.0,9.0,30.15,NNW,331,6.0,20.0,36,0.00,,---,0.00,VWS V14.01,2013-02-01 14:55:00,
2013-02-01 10:00:00,33.2,9.1,30.15,East,82,3.0,11.0,36,0.00,,---,0.00,VWS V14.01,2013-02-01 15:00:00,
2013-02-01 10:05:00,33.1,8.4,30.16,NW,307,7.0,15.0,35,0.00,,---,0.00,VWS V14.01,2013-02-01 15:05:00,
2013-02-01 10:10:00,32.9,8.3,30.16,NE,42,9.0,19.0,35,0.00,,---,0.00,VWS V14.01,2013-02-01 15:10:00,
2013-02-01 10:15:00,33.0,8.4,30.16,ENE,59,13.0,19.0,35,0.00,,---,0.00,VWS V14.01,2013-02-01 15:15:00,
2013-02-01 10:20:00,32.9,8.9,30.17,SW,232,1.0,19.0,36,0.00,,---,0.00,VWS V14.01,2013-02-01 15:20:00,
2013-02-01 10:25:00,33.2,9.1,30.17,NNW,329,6.0,19.0,36,0.00,,---,0.00,VWS V14.01,2013-02-01 15:25:00,
2013-02-01 10:30:00,33.1,8.4,30.17,NNE,21,10.0,13.0,35,0.00,,---,0.00,VWS V14.01,2013-02-01 15:30:00,
2013-02-01 10:35:00,33.0,8.4,30.18,WNW,286,10.0,13.0,35,0.00,,---,0.00,VWS V14.01,2013-02-01 15:35:00,
2013-02-01 10:40:00,33.0,9.0,30.18,NNE,19,1.0,13.0,36,0.00,,---,0.00,VWS V14.01,2013-02-01 15:40:00,
2013-02-01 10:45:00,33.3,9.2,30.19,NE,36,4.0,15.0,36,0.00,,---,0.00,VWS V14.01,2013-02-01 15:45:00,
2013-02-01 10:50:00,32.9,9.5,30.19,NW,315,6.0,15.0,37,0.00,,---,0.00,VWS V14.01,2013-02-01 15:50:00,
2013-02-01 10:55:00,32.9,10.1,30.19,NNW,341,5.0,15.0,38,0.00,,---,0.00,VWS V14.01,2013-02-01 15:55:00,
2013-02-01 11:00:00,33.3,11.6,30.20,ENE,58,6.0,6.0,40,0.00,,---,0.00,VWS V14.01,2013-02-01 16:00:00,
2013-02-01 11:05:00,33.1,10.9,30.20,ENE,59,6.0,12.0,39,0.00,,---,0.00,VWS V14.01,2013-02-01 16:05:00,
2013-02-01 11:10:00,33.2,10.9,30.20,NNW,336,5.0,12.0,39,0.00,,---,0.00,VWS V14.01,2013-02-01 16:10:00,
2013-02-01 11:15:00,33.2,10.4,30.21,WNW,294,5.0,12.0,38,0.00,,---,0.00,VWS V14.01,2013-02-01 16:15:00,
2013-02-01 11:20:00,33.6,10.7,30.21,NNW,346,10.0,12.0,38,0.00,,---,0.00,VWS V14.01,2013-02-01 16:20:00,
2013-02-01 11:25:00,33.6,9.5,30.21,NW,315,6.0,15.0,36,0.00,,---,0.00,VWS V14.01,2013-02-01 16:25:00,
2013-02-01 11:30:00,33.3,8.6,30.21,NNW,337,2.0,11.0,35,0.00,,---,0.00,VWS V14.01,2013-02-01 16:30:00,
2013-02-01 11:35:00,33.5,8.8,30.21,North,11,7.0,11.0,35,0.00,,---,0.00,VWS V14.01,2013-02-01 16:35:00,
2013-02-01 11:40:00,33.5,8.1,30.21,NNE,16,4.0,12.0,34,0.00,,---,0.00,VWS V14.01,2013-02-01 16:40:00,
2013-02-01 11:45:00,34.0,9.2,30.22,NNE,24,2.0,12.0,35,0.00,,---,0.00,VWS V14.01,2013-02-01 16:45:00,
2013-02-01 11:50:00,33.4,7.4,30.21,NNW,347,8.0,14.0,33,0.00,,---,0.00,VWS V14.01,2013-02-01 16:50:00,
2013-02-01 11:55:00,33.1,7.1,30.21,NNE,28,8.0,14.0,33,0.00,,---,0.00,VWS V14.01,2013-02-01 16:55:00,
2013-02-01 12:00:00,33.0,6.4,30.21,NW,325,5.0,13.0,32,0.00,,---,0.00,VWS V14.01,2013-02-01 17:00:00,
2013-02-01 12:05:00,33.2,6.6,30.21,North,349,15.0,15.0,32,0.00,,---,0.00,VWS V14.01,2013-02-01 17:05:00,
2013-02-01 12:10:00,33.3,6.6,30.22,NNE,17,6.0,15.0,32,0.00,,---,0.00,VWS V14.01,2013-02-01 17:10:00,
2013-02-01 12:15:00,33.3,6.6,30.21,NNE,23,1.0,15.0,32,0.00,,---,0.00,VWS V14.01,2013-02-01 17:15:00,
2013-02-01 12:20:00,33.4,6.7,30.22,NE,40,6.0,15.0,32,0.00,,---,0.00,VWS V14.01,2013-02-01 17:20:00,
2013-02-01 12:25:00,33.5,6.8,30.22,ENE,62,6.0,15.0,32,0.00,,---,0.00,VWS V14.01,2013-02-01 17:25:00,
2013-02-01 12:30:00,33.4,6.0,30.22,NE,53,10.0,13.0,31,0.00,,---,0.00,VWS V14.01,2013-02-01 17:30:00,
2013-02-01 12:35:00,33.4,6.0,30.22,NNW,330,9.0,13.0,31,0.00,,---,0.00,VWS V14.01,2013-02-01 17:35:00,
2013-02-01 12:40:00,33.2,5.8,30.22,SSE,167,3.0,14.0,31,0.00,,---,0.00,VWS V14.01,2013-02-01 17:40:00,
2013-02-01 12:45:00,33.5,6.1,30.22,NE,53,4.0,14.0,31,0.00,,---,0.00,VWS V14.01,2013-02-01 17:45:00,
2013-02-01 12:50:00,33.9,7.2,30.22,NNW,339,7.0,14.0,32,0.00,,---,0.00,VWS V14.01,2013-02-01 17:50:00,
2013-02-01 12:55:00,33.9,6.5,30.21,NE,54,10.0,14.0,31,0.00,,---,0.00,VWS V14.01,2013-02-01 17:55:00,
2013-02-01 13:00:00,33.8,6.4,30.21,NNE,17,9.0,14.0,31,0.00,,---,0.00,VWS V14.01,2013-02-01 18:00:00,
2013-02-01 13:05:00,33.7,6.3,30.21,NE,47,7.0,14.0,31,0.00,,---,0.00,VWS V14.01,2013-02-01 18:05:00,
2013-02-01 13:10:00,34.0,6.6,30.21,North,350,11.0,14.0,31,0.00,,---,0.00,VWS V14.01,2013-02-01 18:10:00,
2013-02-01 13:15:00,34.0,6.6,30.21,NE,43,5.0,14.0,31,0.00,,---,0.00,VWS V14.01,2013-02-01 18:15:00,
2013-02-01 13:21:00,34.4,6.9,30.21,WNW,295,12.0,14.0,31,0.00,,---,0.00,VWS V14.01,2013-02-01 18:21:00,
2013-02-01 13:26:00,34.3,6.8,30.21,NNE,23,13.0,13.0,31,0.00,,---,0.00,VWS V14.01,2013-02-01 18:26:00,
2013-02-01 13:31:00,33.9,5.8,30.21,NNW,332,2.0,15.0,30,0.00,,---,0.00,VWS V14.01,2013-02-01 18:31:00,
2013-02-01 13:36:00,34.0,6.6,30.21,East,82,9.0,15.0,31,0.00,,---,0.00,VWS V14.01,2013-02-01 18:36:00,
2013-02-01 13:41:00,34.2,6.7,30.21,ENE,77,5.0,15.0,31,0.00,,---,0.00,VWS V14.01,2013-02-01 18:41:00,
2013-02-01 13:46:00,34.4,6.9,30.21,NW,325,6.0,15.0,31,0.00,,---,0.00,VWS V14.01,2013-02-01 18:46:00,
2013-02-01 13:51:00,34.2,6.7,30.21,NW,320,4.0,15.0,31,0.00,,---,0.00,VWS V14.01,2013-02-01 18:51:00,
2013-02-01 13:56:00,34.5,7.0,30.21,NNW,331,4.0,10.0,31,0.00,,---,0.00,VWS V14.01,2013-02-01 18:56:00,
2013-02-01 14:01:00,34.9,7.3,30.21,ENE,59,6.0,13.0,31,0.00,,---,0.00,VWS V14.01,2013-02-01 19:01:00,
2013-02-01 14:06:00,35.1,8.2,30.22,North,351,2.0,13.0,32,0.00,,---,0.00,VWS V14.01,2013-02-01 19:06:00,
2013-02-01 14:11:00,35.0,6.7,30.22,NNW,336,3.0,13.0,30,0.00,,---,0.00,VWS V14.01,2013-02-01 19:11:00,
2013-02-01 14:16:00,34.9,6.6,30.21,NW,324,9.0,13.0,30,0.00,,---,0.00,VWS V14.01,2013-02-01 19:16:00,
2013-02-01 14:21:00,34.9,6.6,30.22,NW,317,9.0,13.0,30,0.00,,---,0.00,VWS V14.01,2013-02-01 19:21:00,
2013-02-01 14:26:00,35.0,6.7,30.22,NE,39,10.0,10.0,30,0.00,,---,0.00,VWS V14.01,2013-02-01 19:26:00,
2013-02-01 14:31:00,35.2,6.9,30.22,East,85,3.0,10.0,30,0.00,,---,0.00,VWS V14.01,2013-02-01 19:31:00,
2013-02-01 14:36:00,35.4,6.3,30.22,SW,222,8.0,10.0,29,0.00,,---,0.00,VWS V14.01,2013-02-01 19:36:00,
2013-02-01 14:41:00,35.7,5.8,30.22,NW,320,10.0,12.0,28,0.00,,---,0.00,VWS V14.01,2013-02-01 19:41:00,
2013-02-01 14:46:00,35.9,6.0,30.22,NNW,336,7.0,12.0,28,0.00,,---,0.00,VWS V14.01,2013-02-01 19:46:00,
2013-02-01 14:51:00,35.8,5.1,30.22,East,81,8.0,12.0,27,0.00,,---,0.00,VWS V14.01,2013-02-01 19:51:00,
2013-02-01 14:56:00,35.9,6.0,30.23,NNW,340,10.0,10.0,28,0.00,,---,0.00,VWS V14.01,2013-02-01 19:56:00,
2013-02-01 15:01:00,35.8,6.7,30.23,NE,42,4.0,10.0,29,0.00,,---,0.00,VWS V14.01,2013-02-01 20:01:00,
2013-02-01 15:06:00,36.0,6.1,30.23,WSW,250,1.0,10.0,28,0.00,,---,0.00,VWS V14.01,2013-02-01 20:06:00,
2013-02-01 15:11:00,36.5,7.3,30.23,West,263,0.0,10.0,29,0.00,,---,0.00,VWS V14.01,2013-02-01 20:11:00,
2013-02-01 15:16:00,36.9,7.6,30.23,SSE,163,4.0,10.0,29,0.00,,---,0.00,VWS V14.01,2013-02-01 20:16:00,
2013-02-01 15:21:00,36.5,6.5,30.23,NNW,331,5.0,11.0,28,0.00,,---,0.00,VWS V14.01,2013-02-01 20:21:00,
2013-02-01 15:26:00,36.4,7.2,30.24,NE,39,6.0,6.0,29,0.00,,---,0.00,VWS V14.01,2013-02-01 20:26:00,
2013-02-01 15:31:00,36.4,5.6,30.24,WNW,299,5.0,10.0,27,0.00,,---,0.00,VWS V14.01,2013-02-01 20:31:00,
2013-02-01 15:36:00,36.3,6.3,30.24,NNW,329,2.0,10.0,28,0.00,,---,0.00,VWS V14.01,2013-02-01 20:36:00,
2013-02-01 15:41:00,36.5,6.5,30.24,SW,218,7.0,10.0,28,0.00,,---,0.00,VWS V14.01,2013-02-01 20:41:00,
2013-02-01 15:46:00,36.4,6.4,30.24,NE,34,4.0,10.0,28,0.00,,---,0.00,VWS V14.01,2013-02-01 20:46:00,
2013-02-01 15:51:00,36.1,6.2,30.24,South,178,5.0,10.0,28,0.00,,---,0.00,VWS V14.01,2013-02-01 20:51:00,
2013-02-01 15:56:00,36.0,5.3,30.24,NNW,334,2.0,7.0,27,0.00,,---,0.00,VWS V14.01,2013-02-01 20:56:00,
2013-02-01 16:02:00,36.2,4.6,30.24,NNE,16,9.0,9.0,26,0.00,,---,0.00,VWS V14.01,2013-02-01 21:02:00,
2013-02-01 16:07:00,36.1,5.4,30.24,NE,34,7.0,9.0,27,0.00,,---,0.00,VWS V14.01,2013-02-01 21:07:00,
2013-02-01 16:12:00,36.2,5.4,30.25,NW,314,7.0,9.0,27,0.00,,---,0.00,VWS V14.01,2013-02-01 21:12:00,
2013-02-01 16:17:00,36.1,6.2,30.25,ENE,57,1.0,9.0,28,0.00,,---,0.00,VWS V14.01,2013-02-01 21:17:00,
2013-02-01 16:22:00,36.1,5.4,30.25,NNW,341,4.0,9.0,27,0.00,,---,0.00,VWS V14.01,2013-02-01 21:22:00,
2013-02-01 16:27:00,35.9,6.0,30.25,NNW,348,2.0,3.0,28,0.00,,---,0.00,VWS V14.01,2013-02-01 21:27:00,
2013-02-01 16:32:00,35.5,4.8,30.25,NW,305,6.0,8.0,27,0.00,,---,0.00,VWS V14.01,2013-02-01 21:32:00,
2013-02-01 16:37:00,35.2,4.6,30.25,NW,322,7.0,10.0,27,0.00,,---,0.00,VWS V14.01,2013-02-01 21:37:00,
2013-02-01 16:42:00,34.9,4.3,30.26,NW,309,4.0,12.0,27,0.00,,---,0.00,VWS V14.01,2013-02-01 21:42:00,
2013-02-01 16:47:00,34.5,4.8,30.26,West,279,9.0,12.0,28,0.00,,---,0.00,VWS V14.01,2013-02-01 21:47:00,
2013-02-01 16:52:00,34.4,4.7,30.26,NW,309,4.0,12.0,28,0.00,,---,0.00,VWS V14.01,2013-02-01 21:52:00,
2013-02-01 16:57:00,34.3,4.6,30.26,ENE,66,3.0,5.0,28,0.00,,---,0.00,VWS V14.01,2013-02-01 21:57:00,
2013-02-01 17:02:00,34.0,4.3,30.26,West,268,13.0,13.0,28,0.00,,---,0.00,VWS V14.01,2013-02-01 22:02:00,
2013-02-01 17:07:00,33.7,4.1,30.26,West,275,2.0,13.0,28,0.00,,---,0.00,VWS V14.01,2013-02-01 22:07:00,
2013-02-01 17:12:00,33.5,4.7,30.27,NNW,336,6.0,13.0,29,0.00,,---,0.00,VWS V14.01,2013-02-01 22:12:00,
2013-02-01 17:17:00,33.3,4.5,30.26,NNW,330,2.0,13.0,29,0.00,,---,0.00,VWS V14.01,2013-02-01 22:17:00,
2013-02-01 17:22:00,33.1,5.1,30.27,ESE,117,4.0,13.0,30,0.00,,---,0.00,VWS V14.01,2013-02-01 22:22:00,
2013-02-01 17:27:00,32.9,4.9,30.27,NNW,348,7.0,7.0,30,0.00,,---,0.00,VWS V14.01,2013-02-01 22:27:00,
2013-02-01 17:32:00,32.8,4.8,30.27,NNW,336,5.0,9.0,30,0.00,,---,0.00,VWS V14.01,2013-02-01 22:32:00,
2013-02-01 17:37:00,32.6,4.6,30.27,NNW,336,1.0,9.0,30,0.00,,---,0.00,VWS V14.01,2013-02-01 22:37:00,
2013-02-01 17:42:00,32.4,4.4,30.27,NNE,15,0.0,9.0,30,0.00,,---,0.00,VWS V14.01,2013-02-01 22:42:00,
2013-02-01 17:47:00,32.3,5.1,30.28,NNW,331,1.0,9.0,31,0.00,,---,0.00,VWS V14.01,2013-02-01 22:47:00,
2013-02-01 17:52:00,32.0,4.8,30.28,NW,318,4.0,9.0,31,0.00,,---,0.00,VWS V14.01,2013-02-01 22:52:00,
2013-02-01 17:57:00,31.9,4.7,30.28,NE,35,4.0,5.0,31,0.00,,---,0.00,VWS V14.01,2013-02-01 22:57:00,
2013-02-01 18:02:00,31.6,5.1,30.28,NNW,348,0.0,5.0,32,0.00,,---,0.00,VWS V14.01,2013-02-01 23:02:00,
2013-02-01 18:07:00,31.4,5.0,30.29,NW,325,2.0,5.0,32,0.00,,---,0.00,VWS V14.01,2013-02-01 23:07:00,
2013-02-01 18:12:00,31.3,5.6,30.29,North,360,4.0,5.0,33,0.00,,---,0.00,VWS V14.01,2013-02-01 23:12:00,
2013-02-01 18:17:00,31.2,5.5,30.29,NNW,340,2.0,5.0,33,0.00,,---,0.00,VWS V14.01,2013-02-01 23:17:00,
2013-02-01 18:22:00,31.0,5.9,30.29,NNW,331,0.0,5.0,34,0.00,,---,0.00,VWS V14.01,2013-02-01 23:22:00,
2013-02-01 18:27:00,30.8,5.8,30.30,NNW,345,0.0,1.0,34,0.00,,---,0.00,VWS V14.01,2013-02-01 23:27:00,
2013-02-01 18:32:00,30.6,6.2,30.29,NNE,30,0.0,1.0,35,0.00,,---,0.00,VWS V14.01,2013-02-01 23:32:00,
2013-02-01 18:37:00,30.4,5.4,30.30,NNE,27,0.0,5.0,34,0.00,,---,0.00,VWS V14.01,2013-02-01 23:37:00,
2013-02-01 18:42:00,30.2,6.5,30.30,NW,326,1.0,5.0,36,0.00,,---,0.00,VWS V14.01,2013-02-01 23:42:00,
2013-02-01 18:47:00,30.2,6.5,30.31,NE,44,0.0,5.0,36,0.00,,---,0.00,VWS V14.01,2013-02-01 23:47:00,
2013-02-01 18:52:00,30.1,5.8,30.31,NW,318,0.0,5.0,35,0.00,,---,0.00,VWS V14.01,2013-02-01 23:52:00,
2013-02-01 18:57:00,30.0,6.3,30.31,West,261,1.0,2.0,36,0.00,,---,0.00,VWS V14.01,2013-02-01 23:57:00,
2013-02-01 19:02:00,29.8,6.1,30.31,NW,310,1.0,2.0,36,0.00,,---,0.00,VWS V14.01,2013-02-02 00:02:00,
2013-02-01 19:07:00,29.7,6.0,30.31,NNW,341,4.0,4.0,36,0.00,,---,0.00,VWS V14.01,2013-02-02 00:07:00,
2013-02-01 19:12:00,29.8,5.5,30.31,NNW,327,0.0,7.0,35,0.00,,---,0.00,VWS V14.01,2013-02-02 00:12:00,
2013-02-01 19:17:00,29.8,5.5,30.31,NNW,348,4.0,7.0,35,0.00,,---,0.00,VWS V14.01,2013-02-02 00:17:00,
2013-02-01 19:22:00,29.9,5.0,30.31,NNW,327,2.0,7.0,34,0.00,,---,0.00,VWS V14.01,2013-02-02 00:22:00,
2013-02-01 19:27:00,29.8,4.9,30.31,NE,39,4.0,7.0,34,0.00,,---,0.00,VWS V14.01,2013-02-02 00:27:00,
2013-02-01 19:32:00,29.8,5.5,30.32,NW,311,3.0,7.0,35,0.00,,---,0.00,VWS V14.01,2013-02-02 00:32:00,
2013-02-01 19:37:00,29.8,4.9,30.32,WNW,300,2.0,7.0,34,0.00,,---,0.00,VWS V14.01,2013-02-02 00:37:00,
2013-02-01 19:43:00,29.7,5.4,30.32,North,351,2.0,7.0,35,0.00,,---,0.00,VWS V14.01,2013-02-02 00:43:00,
2013-02-01 19:48:00,29.7,5.4,30.32,ENE,57,1.0,7.0,35,0.00,,---,0.00,VWS V14.01,2013-02-02 00:48:00,
2013-02-01 19:53:00,29.6,5.3,30.32,NW,314,2.0,7.0,35,0.00,,---,0.00,VWS V14.01,2013-02-02 00:53:00,
2013-02-01 19:58:00,29.5,5.2,30.32,NNE,17,1.0,6.0,35,0.00,,---,0.00,VWS V14.01,2013-02-02 00:58:00,
2013-02-01 20:03:00,29.5,5.2,30.33,NNW,346,1.0,6.0,35,0.00,,---,0.00,VWS V14.01,2013-02-02 01:03:00,
2013-02-01 20:08:00,29.4,5.1,30.33,NW,318,2.0,6.0,35,0.00,,---,0.00,VWS V14.01,2013-02-02 01:08:00,
2013-02-01 20:13:00,29.3,5.7,30.33,NE,35,0.0,6.0,36,0.00,,---,0.00,VWS V14.01,2013-02-02 01:13:00,
2013-02-01 20:18:00,29.0,6.6,30.33,NE,35,0.0,6.0,38,0.00,,---,0.00,VWS V14.01,2013-02-02 01:18:00,
2013-02-01 20:23:00,28.6,6.8,30.33,ESE,119,0.0,6.0,39,0.00,,---,0.00,VWS V14.01,2013-02-02 01:23:00,
2013-02-01 20:28:00,28.3,6.0,30.34,NW,306,0.0,1.0,38,0.00,,---,0.00,VWS V14.01,2013-02-02 01:28:00,
2013-02-01 20:33:00,28.0,5.7,30.34,NNE,20,2.0,2.0,38,0.00,,---,0.00,VWS V14.01,2013-02-02 01:33:00,
2013-02-01 20:38:00,27.8,6.1,30.34,NNE,24,2.0,4.0,39,0.00,,---,0.00,VWS V14.01,2013-02-02 01:38:00,
2013-02-01 20:43:00,27.8,7.2,30.34,NNE,20,1.0,4.0,41,0.00,,---,0.00,VWS V14.01,2013-02-02 01:43:00,
2013-02-01 20:48:00,27.8,6.6,30.34,NE,43,0.0,5.0,40,0.00,,---,0.00,VWS V14.01,2013-02-02 01:48:00,
2013-02-01 20:53:00,27.7,7.1,30.35,NNW,344,0.0,5.0,41,0.00,,---,0.00,VWS V14.01,2013-02-02 01:53:00,
2013-02-01 20:58:00,27.5,7.9,30.35,NNW,341,0.0,0.0,43,0.00,,---,0.00,VWS V14.01,2013-02-02 01:58:00,
2013-02-01 21:03:00,27.1,7.1,30.35,North,351,0.0,0.0,42,0.00,,---,0.00,VWS V14.01,2013-02-02 02:03:00,
2013-02-01 21:08:00,26.9,6.4,30.35,NE,36,1.0,2.0,41,0.00,,---,0.00,VWS V14.01,2013-02-02 02:08:00,
2013-02-01 21:13:00,26.8,7.3,30.36,NE,37,0.0,2.0,43,0.00,,---,0.00,VWS V14.01,2013-02-02 02:13:00,
2013-02-01 21:18:00,26.7,7.2,30.36,NE,37,0.0,2.0,43,0.00,,---,0.00,VWS V14.01,2013-02-02 02:18:00,
2013-02-01 21:23:00,26.5,7.6,30.36,NNW,348,1.0,2.0,44,0.00,,---,0.00,VWS V14.01,2013-02-02 02:23:00,
2013-02-01 21:28:00,26.5,7.6,30.36,NNE,15,0.0,1.0,44,0.00,,---,0.00,VWS V14.01,2013-02-02 02:28:00,
2013-02-01 21:33:00,26.3,7.4,30.37,NNE,15,0.0,1.0,44,0.00,,---,0.00,VWS V14.01,2013-02-02 02:33:00,
2013-02-01 21:38:00,26.1,7.2,30.37,NNE,15,0.0,1.0,44,0.00,,---,0.00,VWS V14.01,2013-02-02 02:38:00,
2013-02-01 21:43:00,25.9,8.0,30.37,NNE,31,1.0,2.0,46,0.00,,---,0.00,VWS V14.01,2013-02-02 02:43:00,
2013-02-01 21:48:00,25.9,8.5,30.36,NNE,15,0.0,3.0,47,0.00,,---,0.00,VWS V14.01,2013-02-02 02:48:00,
2013-02-01 21:53:00,26.0,9.0,30.37,NNE,20,0.0,3.0,48,0.00,,---,0.00,VWS V14.01,2013-02-02 02:53:00,
2013-02-01 21:58:00,25.9,8.5,30.37,NE,46,1.0,2.0,47,0.00,,---,0.00,VWS V14.01,2013-02-02 02:58:00,
2013-02-01 22:03:00,25.9,8.5,30.37,ENE,69,0.0,2.0,47,0.00,,---,0.00,VWS V14.01,2013-02-02 03:03:00,
2013-02-01 22:08:00,25.8,7.9,30.37,ENE,69,0.0,2.0,46,0.00,,---,0.00,VWS V14.01,2013-02-02 03:08:00,
2013-02-01 22:13:00,25.8,7.9,30.37,ENE,58,1.0,2.0,46,0.00,,---,0.00,VWS V14.01,2013-02-02 03:13:00,
2013-02-01 22:18:00,25.6,8.2,30.37,SSW,209,2.0,2.0,47,0.00,,---,0.00,VWS V14.01,2013-02-02 03:18:00,
2013-02-01 22:23:00,25.4,9.4,30.37,NNW,327,1.0,2.0,50,0.00,,---,0.00,VWS V14.01,2013-02-02 03:23:00,
2013-02-01 22:28:00,25.3,8.8,30.37,ENE,59,2.0,2.0,49,0.00,,---,0.00,VWS V14.01,2013-02-02 03:28:00,
2013-02-01 22:33:00,25.4,8.9,30.37,East,92,1.0,2.0,49,0.00,,---,0.00,VWS V14.01,2013-02-02 03:33:00,
2013-02-01 22:38:00,25.4,8.9,30.38,East,84,0.0,2.0,49,0.00,,---,0.00,VWS V14.01,2013-02-02 03:38:00,
2013-02-01 22:43:00,25.2,9.2,30.37,NE,35,4.0,4.0,50,0.00,,---,0.00,VWS V14.01,2013-02-02 03:43:00,
2013-02-01 22:48:00,25.2,8.7,30.37,NNW,336,4.0,6.0,49,0.00,,---,0.00,VWS V14.01,2013-02-02 03:48:00,
2013-02-01 22:53:00,25.2,8.3,30.38,North,355,0.0,6.0,48,0.00,,---,0.00,VWS V14.01,2013-02-02 03:53:00,
2013-02-01 22:58:00,25.1,8.6,30.38,NE,40,0.0,1.0,49,0.00,,---,0.00,VWS V14.01,2013-02-02 03:58:00,
2013-02-01 23:03:00,25.1,8.2,30.38,East,98,0.0,1.0,48,0.00,,---,0.00,VWS V14.01,2013-02-02 04:03:00,
2013-02-01 23:08:00,24.8,7.9,30.37,NE,46,1.0,1.0,48,0.00,,---,0.00,VWS V14.01,2013-02-02 04:08:00,
2013-02-01 23:13:00,24.8,8.4,30.37,NNE,15,1.0,4.0,49,0.00,,---,0.00,VWS V14.01,2013-02-02 04:13:00,
2013-02-01 23:18:00,24.8,7.4,30.38,NE,34,0.0,4.0,47,0.00,,---,0.00,VWS V14.01,2013-02-02 04:18:00,
2013-02-01 23:23:00,24.7,7.3,30.38,NE,40,1.0,4.0,47,0.00,,---,0.00,VWS V14.01,2013-02-02 04:23:00,
2013-02-01 23:28:00,24.6,7.7,30.37,NNE,28,1.0,1.0,48,0.00,,---,0.00,VWS V14.01,2013-02-02 04:28:00,
2013-02-01 23:33:00,24.6,7.3,30.37,NE,42,1.0,3.0,47,0.00,,---,0.00,VWS V14.01,2013-02-02 04:33:00,
2013-02-01 23:38:00,24.6,8.2,30.38,NW,315,0.0,3.0,49,0.00,,---,0.00,VWS V14.01,2013-02-02 04:38:00,
2013-02-01 23:43:00,24.4,7.5,30.38,NNE,28,1.0,3.0,48,0.00,,---,0.00,VWS V14.01,2013-02-02 04:43:00,
2013-02-01 23:48:00,24.4,7.5,30.37,NE,36,1.0,3.0,48,0.00,,---,0.00,VWS V14.01,2013-02-02 04:48:00,
2013-02-01 23:53:00,24.3,7.0,30.37,NE,36,0.0,3.0,47,0.00,,---,0.00,VWS V14.01,2013-02-02 04:53:00,
2013-02-01 23:58:00,24.3,7.0,30.37,NNE,27,0.0,0.0,47,0.00,,---,0.00,VWS V14.01,2013-02-02 04:58:00,